Punta Gorda, FL

7:56 AM EDT on August 19, 2017 (GMT -0400)
Charlotte County

Weather History for KPGD - August, 2014

Change the Weather History Date:

Saturday, August 2, 2014

  Actual Average Record
Temperature  
Mean Temperature 86 °F -  
Max Temperature 97 °F 88 °F 97 °F (2014)
Min Temperature 75 °F 71 °F 71 °F (2000)
Cooling Degree Days 21    
Growing Degree Days 36 (Base 50)    
Moisture  
Dew Point 74 °F    
Average Humidity 72    
Maximum Humidity 94    
Minimum Humidity 41    
Precipitation  
Precipitation 0.00 in - - ()
Sea Level Pressure  
Sea Level Pressure 29.96 in    
Wind  
Wind Speed 4 mph (NE)    
Max Wind Speed 12 mph    
Max Gust Speed 21 mph    
Visibility 10 miles    
Events Thunderstorm    
Averages and records for this station are not official NWS values.
T = Trace of Precipitation, MM = Missing Value Source: NWS Daily Summary

Daily Weather History Graph

Daily Weather History Graph

Search for Another Location

Airport or City:

Trip Planner

Search our weather history database for the weather conditions in past years. The results will help you decide how hot, cold, wet, or windy it might be!

Date:

Astronomy

Aug. 02, 2014 Rise Set
Actual Time 6:52 AM EDT 8:15 PM EDT
Civil Twilight 6:27 AM EDT 8:40 PM EDT
Nautical Twilight 5:58 AM EDT 9:09 PM EDT
Astronomical Twilight 5:27 AM EDT 9:40 PM EDT
Moon 12:34 PM EDT (8/2) No Moon Set
Length of Visible Light 14h 12m
Length of Day
13h 22m
Waxing Crescent, 36% of the Moon is Illuminated
Aug 2
Waxing Crescent
Aug 3
First Quarter
Aug 10
Full
Aug 17
Last Quarter
Aug 25
New

Hourly Weather History & Observations

Time (EDT) Temp. Heat Index Dew Point Humidity Pressure Visibility Wind Dir Wind Speed Gust Speed Precip Events Conditions
12:53 AM 79.0 °F - 75.0 °F 88% 29.99 in 10.0 mi NE 4.6 mph - N/A   Clear
1:53 AM 78.1 °F - 75.0 °F 90% 29.98 in 10.0 mi Calm Calm - N/A   Clear
2:53 AM 78.1 °F - 75.0 °F 90% 29.96 in 10.0 mi Calm Calm - N/A   Clear
3:53 AM 78.1 °F - 73.9 °F 87% 29.95 in 10.0 mi Calm Calm - N/A   Clear
4:53 AM 75.9 °F - 73.9 °F 94% 29.94 in 10.0 mi East 5.8 mph - N/A   Clear
5:53 AM 75.0 °F - 73.0 °F 94% 29.95 in 10.0 mi NNE 3.5 mph - N/A   Clear
6:53 AM 75.9 °F - 73.9 °F 94% 29.96 in 10.0 mi North 4.6 mph - N/A   Clear
7:53 AM 78.1 °F - 75.0 °F 90% 29.99 in 10.0 mi NNE 5.8 mph - N/A   Clear
8:53 AM 81.0 °F 86.7 °F 75.0 °F 82% 30.00 in 10.0 mi ENE 4.6 mph - N/A   Clear
9:53 AM 86.0 °F 96.0 °F 75.9 °F 72% 30.00 in 10.0 mi East 5.8 mph - N/A   Clear
10:53 AM 88.0 °F 96.5 °F 73.9 °F 63% 30.01 in 10.0 mi ESE 4.6 mph - N/A   Clear
11:53 AM 90.0 °F 97.9 °F 73.0 °F 57% 29.99 in 10.0 mi Variable 3.5 mph - N/A   Clear
12:53 PM 91.9 °F 99.5 °F 72.0 °F 52% 29.99 in 10.0 mi SSE 3.5 mph - N/A   Partly Cloudy
1:53 PM 91.0 °F 99.3 °F 73.0 °F 55% 29.97 in 10.0 mi NNE 4.6 mph - N/A   Mostly Cloudy
2:53 PM 95.0 °F 101.3 °F 70.0 °F 44% 29.95 in 10.0 mi North - - N/A   Clear
3:53 PM 93.9 °F 102.1 °F 72.0 °F 49% 29.92 in 10.0 mi NNE 4.6 mph - N/A   Clear
4:53 PM 97.0 °F 107.0 °F 73.0 °F 46% 29.92 in 10.0 mi NNE 10.4 mph - N/A   Clear
5:53 PM 97.0 °F 103.5 °F 70.0 °F 41% 29.90 in 10.0 mi NE 5.8 mph - N/A   Partly Cloudy
6:53 PM 91.9 °F 103.2 °F 75.0 °F 58% 29.90 in 10.0 mi NE 9.2 mph 20.7 mph N/A   Mostly Cloudy
7:17 PM 89.1 °F 98.0 °F 73.9 °F 61% 29.91 in 10.0 mi ENE 11.5 mph - N/A Thunderstorm Thunderstorm
7:53 PM 86.0 °F 96.9 °F 77.0 °F 74% 29.93 in 10.0 mi WSW 4.6 mph - N/A Thunderstorm Mostly Cloudy
8:51 PM 84.2 °F 94.1 °F 77.0 °F 79% 29.94 in 10.0 mi WSW 5.8 mph - N/A   Mostly Cloudy
8:53 PM 84.0 °F 93.7 °F 77.0 °F 79% 29.94 in 10.0 mi WSW 6.9 mph - N/A   Mostly Cloudy
9:53 PM 82.9 °F 91.8 °F 77.0 °F 82% 29.98 in 10.0 mi SW 3.5 mph - N/A   Mostly Cloudy
10:14 PM 82.9 °F 90.8 °F 75.9 °F 79% 29.98 in 10.0 mi SE 3.5 mph - N/A   Scattered Clouds
10:53 PM 82.9 °F 91.8 °F 77.0 °F 82% 29.99 in 10.0 mi West 6.9 mph - N/A   Mostly Cloudy